Location: Cabeza de los Veneras
(40.2000°N, 5.2000°W)
Time: 15:45:34
(UTC+00:00)

Iridium 4 Rocket - Pass Details

Date: 18 April 2024
Orbit: 581 x 897 km, 86.9° (Epoch: 29 May)

Event Time Altitude Azimuth Distance (km) Brightness Sun altitude
Exits shadow 20:44:42 30° 146° (SE) 1,452 4.4 -18.5°
Maximum altitude 20:47:10 52° 86° (E) 1,053 3.9 -18.8°
Drops below altitude 10° 20:52:46 10° 12° (NNE) 2,550 6.5 -19.7°
Sets 20:55:19 0° 8° (N) 3,511 7.3 -20.1°
